Location: Im Fang
(46.6019°N, 7.2397°E)
Time: 04:08:10
(UTC+00:00)

Envisat - Pass Details

Date: 11 March 2021
Orbit: 764 x 766 km, 98.1° (Epoch: 18 April)

Event Time Altitude Azimuth Distance (km) Brightness Sun altitude
Rises 05:00:22 0° 16° (NNE) 3,244 6.5 -9.6°
Reaches altitude 10° 05:02:43 10° 20° (NNE) 2,313 5.8 -9.2°
Maximum altitude 05:07:46 62° 101° (E) 858 3.6 -8.4°
Drops below altitude 10° 05:12:47 10° 182° (S) 2,295 5.4 -7.5°
Sets 05:15:06 0° 186° (S) 3,216 6.1 -7.1°
